TimeCST,TemperatureF,Dew PointF,Humidity,Sea Level PressureIn,VisibilityMPH,Wind Direction,Wind SpeedMPH,Gust SpeedMPH,PrecipitationIn,Events,Conditions,WindDirDegrees,DateUTC
12:15 AM,17.6,14.0,86,29.96,1.5,NNE,12.7,-,N/A,,Overcast,20,2013-02-22 06:15:00
12:55 AM,17.6,14.0,86,29.96,3.0,NNE,10.4,-,N/A,,Mostly Cloudy,20,2013-02-22 06:55:00
1:15 AM,17.6,15.8,93,29.96,4.0,North,9.2,-,N/A,,Clear,10,2013-02-22 07:15:00
1:35 AM,17.6,14.0,86,29.95,2.5,North,8.1,-,N/A,,Clear,350,2013-02-22 07:35:00
1:55 AM,17.6,14.0,86,29.95,2.0,NNW,9.2,-,N/A,,Clear,340,2013-02-22 07:55:00
2:15 AM,17.6,14.0,86,29.95,2.5,NNW,8.1,-,N/A,,Clear,330,2013-02-22 08:15:00
2:35 AM,17.6,14.0,86,29.94,3.0,NNW,10.4,-,N/A,,Clear,330,2013-02-22 08:35:00
2:55 AM,15.8,14.0,93,29.94,3.0,NW,10.4,-,N/A,,Clear,320,2013-02-22 08:55:00
3:15 AM,15.8,14.0,93,29.94,1.5,NNW,12.7,-,N/A,,Scattered Clouds,330,2013-02-22 09:15:00
3:35 AM,15.8,14.0,93,29.93,2.0,NW,11.5,-,N/A,,Clear,320,2013-02-22 09:35:00
3:55 AM,15.8,14.0,93,29.93,3.0,NW,11.5,-,N/A,,Clear,320,2013-02-22 09:55:00
4:15 AM,15.8,12.2,86,29.94,3.0,NW,12.7,-,N/A,,Clear,320,2013-02-22 10:15:00
4:35 AM,15.8,12.2,86,29.94,5.0,NW,12.7,-,N/A,,Clear,320,2013-02-22 10:35:00
4:55 AM,15.8,12.2,86,29.94,5.0,NW,11.5,-,N/A,,Clear,310,2013-02-22 10:55:00
5:15 AM,15.8,12.2,86,29.94,10.0,NW,11.5,-,N/A,,Clear,310,2013-02-22 11:15:00
5:35 AM,15.8,12.2,86,29.94,9.0,NW,12.7,-,N/A,,Clear,310,2013-02-22 11:35:00
5:55 AM,15.8,12.2,86,29.94,10.0,NW,13.8,-,N/A,,Partly Cloudy,320,2013-02-22 11:55:00
6:15 AM,14.0,12.2,93,29.94,10.0,NW,12.7,-,N/A,,Partly Cloudy,310,2013-02-22 12:15:00
6:35 AM,12.2,10.4,92,29.94,10.0,NW,11.5,-,N/A,,Clear,320,2013-02-22 12:35:00
6:55 AM,12.2,10.4,92,29.95,10.0,NW,11.5,-,N/A,,Clear,320,2013-02-22 12:55:00
7:15 AM,12.2,8.6,85,29.94,10.0,NW,10.4,-,N/A,,Clear,320,2013-02-22 13:15:00
7:35 AM,12.2,10.4,92,29.93,9.0,NW,12.7,-,N/A,,Mostly Cloudy,320,2013-02-22 13:35:00
7:55 AM,14.0,10.4,86,29.93,10.0,NNW,12.7,-,N/A,,Partly Cloudy,330,2013-02-22 13:55:00
8:15 AM,14.0,12.2,93,29.94,10.0,NW,10.4,-,N/A,,Clear,310,2013-02-22 14:15:00
8:35 AM,14.0,10.4,86,29.95,10.0,West,13.8,-,N/A,,Scattered Clouds,280,2013-02-22 14:35:00
8:55 AM,14.0,12.2,93,29.95,10.0,NW,11.5,-,N/A,,Overcast,310,2013-02-22 14:55:00
9:15 AM,14.0,10.4,86,29.95,10.0,NW,13.8,-,N/A,,Scattered Clouds,310,2013-02-22 15:15:00
9:35 AM,14.0,10.4,86,29.96,10.0,WNW,15.0,-,N/A,,Clear,300,2013-02-22 15:35:00
9:55 AM,15.8,12.2,86,29.96,10.0,NW,15.0,-,N/A,,Partly Cloudy,310,2013-02-22 15:55:00
10:15 AM,15.8,12.2,86,29.96,10.0,NW,16.1,-,N/A,,Partly Cloudy,310,2013-02-22 16:15:00
10:35 AM,15.8,12.2,86,29.97,10.0,NW,13.8,-,N/A,,Clear,310,2013-02-22 16:35:00
11:15 AM,17.6,14.0,86,29.97,10.0,NW,16.1,-,N/A,,Clear,320,2013-02-22 17:15:00
11:35 AM,19.4,15.8,86,29.97,10.0,NW,13.8,-,N/A,,Clear,310,2013-02-22 17:35:00
11:55 AM,19.4,15.8,86,29.98,10.0,WNW,13.8,-,N/A,,Partly Cloudy,300,2013-02-22 17:55:00
12:15 PM,19.4,14.0,80,29.99,10.0,WNW,16.1,-,N/A,,Clear,300,2013-02-22 18:15:00
12:35 PM,19.4,15.8,86,29.99,10.0,NW,15.0,-,N/A,,Clear,310,2013-02-22 18:35:00
1:15 PM,19.4,15.8,86,29.98,10.0,NW,12.7,-,N/A,,Clear,310,2013-02-22 19:15:00
1:35 PM,19.4,15.8,86,29.98,10.0,NW,16.1,-,N/A,,Clear,310,2013-02-22 19:35:00
1:55 PM,21.2,15.8,80,29.97,9.0,NW,15.0,-,N/A,,Clear,310,2013-02-22 19:55:00
2:15 PM,21.2,15.8,80,29.97,5.0,WNW,13.8,-,N/A,,Clear,300,2013-02-22 20:15:00
2:35 PM,21.2,15.8,80,29.97,8.0,WNW,15.0,-,N/A,,Clear,290,2013-02-22 20:35:00
2:55 PM,21.2,17.6,86,29.96,10.0,WNW,16.1,-,N/A,,Clear,300,2013-02-22 20:55:00
3:15 PM,21.2,15.8,80,29.96,10.0,NW,13.8,-,N/A,,Clear,310,2013-02-22 21:15:00
3:35 PM,21.2,17.6,86,29.97,10.0,WNW,13.8,-,N/A,,Scattered Clouds,300,2013-02-22 21:35:00
3:55 PM,21.2,17.6,86,29.97,10.0,WNW,10.4,-,N/A,,Partly Cloudy,300,2013-02-22 21:55:00
4:15 PM,21.2,17.6,86,29.97,10.0,WNW,11.5,-,N/A,,Clear,290,2013-02-22 22:15:00
4:35 PM,21.2,17.6,86,29.98,10.0,WNW,10.4,-,N/A,,Clear,290,2013-02-22 22:35:00
4:55 PM,21.2,15.8,80,29.98,10.0,West,9.2,-,N/A,,Clear,280,2013-02-22 22:55:00
5:15 PM,21.2,15.8,80,29.98,10.0,West,10.4,-,N/A,,Partly Cloudy,270,2013-02-22 23:15:00
5:35 PM,21.2,15.8,80,29.98,10.0,West,10.4,-,N/A,,Partly Cloudy,260,2013-02-22 23:35:00
5:55 PM,19.4,14.0,80,29.98,10.0,West,10.4,-,N/A,,Clear,270,2013-02-22 23:55:00
6:15 PM,19.4,12.2,74,29.98,10.0,West,8.1,-,N/A,,Clear,270,2013-02-23 00:15:00
6:35 PM,17.6,12.2,79,29.98,10.0,West,8.1,-,N/A,,Clear,280,2013-02-23 00:35:00
6:55 PM,15.8,10.4,79,29.98,10.0,West,6.9,-,N/A,,Clear,270,2013-02-23 00:55:00
7:15 PM,15.8,12.2,86,29.98,10.0,West,8.1,-,N/A,,Clear,280,2013-02-23 01:15:00
7:35 PM,17.6,12.2,79,29.98,10.0,West,8.1,-,N/A,,Clear,270,2013-02-23 01:35:00
7:55 PM,17.6,12.2,79,29.97,10.0,West,8.1,-,N/A,,Clear,270,2013-02-23 01:55:00
8:15 PM,17.6,12.2,79,29.97,10.0,West,9.2,-,N/A,,Clear,270,2013-02-23 02:15:00
8:35 PM,17.6,12.2,79,29.97,10.0,WSW,5.8,-,N/A,,Clear,250,2013-02-23 02:35:00
8:55 PM,17.6,12.2,79,29.96,10.0,West,8.1,-,N/A,,Clear,270,2013-02-23 02:55:00
9:15 PM,17.6,12.2,79,29.96,10.0,WSW,6.9,-,N/A,,Clear,250,2013-02-23 03:15:00
9:35 PM,15.8,12.2,86,29.96,10.0,West,6.9,-,N/A,,Clear,260,2013-02-23 03:35:00
9:55 PM,15.8,10.4,79,29.96,10.0,West,5.8,-,N/A,,Clear,260,2013-02-23 03:55:00
10:15 PM,15.8,14.0,93,29.96,10.0,SW,4.6,-,N/A,,Clear,230,2013-02-23 04:15:00
10:35 PM,14.0,12.2,93,29.96,10.0,SW,4.6,-,N/A,,Clear,230,2013-02-23 04:35:00
10:55 PM,14.0,12.2,93,29.96,10.0,SW,3.5,-,N/A,,Clear,220,2013-02-23 04:55:00
11:15 PM,14.0,12.2,93,29.96,10.0,SSW,3.5,-,N/A,,Partly Cloudy,210,2013-02-23 05:15:00
11:55 PM,14.0,12.2,93,29.95,10.0,SSW,4.6,-,N/A,,Clear,210,2013-02-23 05:55:00